Dewpoint
40 40 41 41 41 41 41 41 39 40 40 39 38 38 38 38 38 38 37 36 35 35 36 37 38 37 37
40 40 41 41 41 38 36 34 34 35 36 36 36 37 36 35 35 33 33 33 33 34 36 36 37 37 37
39 39 38 38 37 34 31 30 28 33 32 30 31 32 32 32 33 32 32 32 33 34 35 35 35 36 37
36 35 34 34 35 31 29 30 28 23 25 25 26 28 29 31 32 32 31 32 34 34 33 34 35 36 36
32 33 32 31 30 31 29 28 25 24 23 23 25 26 27 31 31 30 31 31 31 33 34 35 35 35 36
30 33 32 31 28 27 26 24 22 24 24 23 25 25 26 26 30 32 30 32 33 34 35 35 33 34 35
33 29 27 26 27 25 24 23 22 26 25 23 25 24 26 27 30 29 30 32 34 34 34 32 33 33 34
27 28 28 29 29 27 26 25 25 25 25 21 26 24 26 27 31 28 30 33 33 34 32 33 34 34 34
32 31 30 29 28 27 24 22 22 24 25 24 25 26 27 27 28 28 28 31 32 32 33 33 33 33 33
26 27 30 29 30 26 24 17 19 20 25 21 23 23 19 26 27 26 25 29 29 30 31 31 32 30 29
21 21 26 25 25 27 27 19 17 21 26 20 20 26 21 22 24 26 27 28 27 28 31 31 31 31 28
20 21 22 24 24 25 27 25 25 28 29 25 16 25 25 22 20 24 23 25 25 27 27 30 31 32 32
22 22 23 23 23 27 23 23 18 22 27 26 19 25 26 24 17 22 25 24 26 22 23 25 27 27 26
22 23 24 23 20 19 26 26 25 25 29 29 27 21 24 25 25 23 24 23 18 23 24 28 28 27 27
22 22 23 22 20 25 26 25 24 24 25 28 29 27 27 25 23 24 23 22 23 23 28 26 26 26 26
21 22 20 20 18 15 18 24 23 22 23 24 27 26 25 24 26 23 22 22 22 22 20 19 23 25 26
21 19 18 17 25 15 15 17 17 18 17 16 18 22 15 16 20 23 22 15 23 24 21 22 22 23 25
Lifted_Index
5 5 6 7 7 7 8 9 9 9 10 10 10 10 9 10 10 10 11 13 14 16 16 16 16 15 15
5 5 6 7 7 8 8 9 10 10 10 10 10 10 10 11 12 13 14 15 16 17 17 16 16 16 15
5 6 7 7 8 8 8 9 10 11 11 11 12 12 13 14 15 16 17 18 18 18 17 17 16 16 15
6 6 7 7 8 8 9 9 10 11 13 14 14 15 17 18 18 19 19 19 18 18 17 17 16 16 16
6 6 7 7 8 8 9 10 12 13 15 16 17 18 19 19 19 19 19 18 18 17 17 17 16 16 16
6 7 7 8 9 10 12 12 13 16 17 17 18 19 19 19 19 18 18 17 17 17 17 17 16 16 16
7 8 9 11 12 14 15 15 15 17 17 17 17 18 18 18 18 17 17 17 17 17 17 16 16 16 16
11 12 14 16 17 17 16 16 16 17 17 16 16 17 17 17 17 17 17 17 17 16 16 16 16 15 15
15 16 18 19 19 18 16 15 14 16 17 16 16 16 16 16 16 16 16 17 16 16 16 15 15 14 14
17 18 19 19 19 19 17 15 14 15 16 16 15 15 15 15 15 16 16 16 16 16 15 15 14 13 13
16 17 18 19 19 19 19 18 16 16 17 17 16 15 14 14 14 15 16 16 16 15 15 14 14 13 13
15 16 17 18 19 19 20 20 19 18 18 18 16 15 14 14 14 14 15 15 15 15 14 14 14 14 13
15 15 17 18 18 19 19 19 19 18 18 18 17 16 15 14 14 14 15 15 15 15 15 15 14 14 14
15 16 17 17 18 18 18 17 17 17 17 18 18 17 16 15 15 15 15 15 16 16 15 15 15 14 14
15 15 15 15 16 17 17 16 15 15 16 17 18 17 17 16 16 16 16 16 17 17 16 15 14 14 15
15 14 14 14 14 15 15 14 13 14 15 17 17 16 15 15 16 17 17 17 17 17 16 15 14 14 15
15 14 14 14 14 14 14 13 13 13 15 16 16 15 13 13 16 18 17 17 16 16 16 15 13 13 14